Temp
-7 -7 -7 -6 -6 -6 -6 -7 -8 -7 -7 -7 -6 -6 -6 -6 -4 -5 -5 -6 -5 -5 -5 -5 -5 -5 -5 -5 -5 -5 -5 -5 -5 -5 -4 -4 -4 -3 -3 -3 -3 -3 -4 -4 -4 -5 -5 -5 -5
-7 -7 -6 -6 -6 -5 -6 -8 -8 -7 -8 -7 -8 -8 -7 -6 -5 -5 -6 -6 -6 -5 -5 -5 -5 -6 -6 -6 -5 -5 -5 -5 -5 -5 -5 -5 -4 -4 -4 -4 -4 -4 -4 -4 -4 -5 -5 -5 -5
-8 -7 -7 -6 -6 -6 -7 -6 -7 -7 -7 -8 -7 -7 -7 -5 -4 -5 -6 -7 -6 -6 -6 -6 -6 -5 -5 -5 -6 -6 -6 -6 -6 -6 -6 -5 -5 -5 -5 -4 -4 -4 -5 -5 -5 -5 -6 -6 -6
-9 -8 -7 -6 -6 -6 -7 -6 -8 -7 -7 -8 -8 -7 -6 -5 -5 -5 -6 -7 -6 -6 -6 -6 -6 -6 -6 -6 -6 -6 -6 -6 -6 -6 -6 -6 -6 -6 -5 -5 -5 -5 -5 -5 -5 -5 -6 -6 -6
-9 -9 -8 -7 -6 -8 -8 -8 -7 -8 -8 -7 -8 -7 -6 -6 -5 -4 -5 -6 -7 -6 -6 -6 -6 -6 -6 -6 -6 -6 -6 -6 -6 -6 -6 -6 -6 -6 -6 -6 -6 -6 -6 -5 -6 -6 -5 -6 -6
-9 -9 -8 -7 -7 -8 -8 -9 -8 -8 -8 -9 -9 -7 -7 -5 -5 -5 -5 -5 -6 -7 -6 -6 -6 -6 -6 -6 -6 -6 -6 -6 -6 -6 -6 -6 -7 -7 -7 -7 -7 -6 -6 -6 -6 -6 -6 -6 -7
-9 -9 -8 -8 -8 -9 -8 -8 -10 -9 -9 -9 -8 -8 -6 -5 -5 -6 -6 -5 -6 -7 -7 -7 -7 -6 -7 -6 -6 -6 -7 -7 -7 -7 -7 -7 -7 -7 -7 -7 -7 -7 -7 -7 -7 -7 -7 -7 -7
-9 -9 -8 -8 -8 -8 -9 -10 -11 -11 -11 -10 -10 -9 -8 -7 -6 -6 -6 -7 -7 -7 -7 -7 -7 -7 -7 -7 -7 -7 -7 -7 -7 -8 -8 -8 -8 -8 -7 -8 -8 -8 -8 -8 -8 -8 -8 -8 -8
-9 -8 -8 -8 -8 -8 -10 -10 -9 -11 -11 -10 -9 -9 -7 -7 -7 -7 -7 -7 -7 -8 -8 -8 -8 -8 -8 -8 -8 -8 -8 -8 -8 -8 -8 -8 -8 -9 -9 -9 -8 -8 -8 -8 -8 -8 -8 -8 -8
-8 -8 -8 -8 -8 -8 -10 -10 -10 -10 -10 -8 -8 -8 -8 -8 -8 -8 -8 -8 -7 -7 -8 -9 -9 -9 -9 -9 -9 -9 -9 -9 -9 -9 -9 -9 -9 -9 -9 -9 -9 -9 -9 -9 -9 -9 -9 -8 -8
-8 -8 -8 -8 -8 -8 -9 -8 -9 -9 -8 -7 -7 -7 -8 -8 -8 -8 -8 -8 -8 -8 -8 -8 -10 -9 -9 -8 -9 -9 -9 -9 -9 -9 -9 -9 -9 -9 -10 -9 -10 -10 -10 -9 -9 -9 -9 -9 -9
-8 -8 -8 -9 -9 -8 -8 -7 -8 -8 -8 -8 -8 -7 -7 -8 -8 -8 -7 -7 -8 -8 -8 -7 -7 -8 -9 -8 -8 -9 -10 -10 -10 -10 -10 -10 -9 -10 -10 -9 -10 -10 -10 -10 -10 -10 -10 -10 -9
-8 -9 -9 -9 -9 -8 -8 -7 -8 -8 -8 -8 -8 -8 -8 -7 -8 -8 -8 -8 -9 -8 -8 -7 -7 -7 -7 -8 -8 -8 -9 -10 -10 -10 -10 -10 -9 -10 -10 -10 -10 -9 -10 -10 -10 -10 -10 -10 -10
-9 -9 -9 -9 -9 -8 -8 -7 -8 -8 -8 -8 -7 -8 -8 -8 -8 -8 -8 -8 -9 -9 -8 -8 -7 -7 -7 -8 -8 -10 -11 -10 -10 -10 -10 -10 -10 -9 -10 -10 -10 -10 -10 -10 -10 -10 -10 -10 -10
-9 -9 -8 -8 -8 -9 -9 -8 -8 -8 -8 -8 -8 -7 -8 -9 -8 -8 -8 -9 -9 -9 -9 -8 -8 -8 -7 -7 -9 -8 -10 -11 -10 -10 -11 -11 -11 -11 -10 -11 -11 -11 -11 -10 -10 -10 -10 -10 -10
-9 -9 -9 -9 -10 -10 -9 -8 -9 -9 -9 -8 -8 -8 -8 -9 -9 -8 -8 -9 -9 -9 -9 -8 -8 -8 -7 -8 -9 -9 -10 -10 -10 -10 -10 -11 -11 -11 -11 -10 -10 -11 -10 -10 -10 -10 -10 -10 -10
-10 -10 -10 -10 -10 -10 -10 -9 -9 -9 -9 -8 -9 -8 -8 -8 -8 -8 -9 -9 -9 -9 -9 -9 -9 -9 -9 -10 -10 -10 -9 -9 -9 -9 -9 -10 -10 -11 -10 -9 -10 -10 -9 -9 -10 -10 -10 -11 -11
-10 -10 -11 -11 -12 -12 -10 -9 -9 -10 -9 -9 -9 -9 -9 -9 -9 -9 -9 -9 -8 -8 -8 -9 -9 -9 -9 -9 -9 -10 -10 -10 -9 -10 -10 -9 -10 -10 -10 -9 -9 -9 -9 -9 -9 -9 -10 -11 -11
-11 -11 -11 -11 -12 -13 -13 -13 -13 -9 -11 -10 -10 -10 -10 -10 -10 -9 -9 -9 -9 -9 -9 -9 -10 -10 -9 -10 -9 -10 -10 -10 -10 -10 -10 -10 -9 -10 -10 -10 -10 -10 -11 -11 -11 -10 -9 -9 -10
-12 -12 -12 -12 -13 -13 -13 -12 -12 -9 -10 -11 -11 -10 -10 -10 -10 -10 -10 -9 -8 -8 -9 -9 -10 -10 -10 -10 -10 -9 -10 -10 -10 -11 -11 -10 -9 -9 -10 -10 -11 -12 -12 -12 -12 -12 -11 -11 -11
-12 -12 -12 -12 -12 -12 -12 -12 -12 -11 -11 -11 -11 -11 -11 -10 -10 -10 -10 -9 -9 -8 -8 -9 -10 -10 -10 -10 -10 -10 -9 -9 -9 -10 -10 -10 -10 -9 -10 -11 -10 -11 -11 -12 -12 -12 -13 -13 -13
-12 -12 -12 -12 -12 -12 -13 -12 -12 -11 -11 -11 -11 -10 -11 -11 -11 -10 -10 -9 -9 -9 -9 -10 -9 -9 -11 -10 -11 -11 -11 -11 -10 -10 -10 -10 -10 -10 -10 -10 -10 -10 -10 -12 -13 -13 -14 -14 -12
-12 -12 -12 -13 -11 -11 -11 -11 -11 -11 -11 -12 -12 -12 -12 -12 -10 -10 -11 -10 -9 -10 -10 -10 -9 -9 -10 -10 -11 -11 -11 -11 -10 -10 -10 -10 -9 -9 -10 -10 -11 -11 -13 -11 -11 -10 -12 -14 -13
-12 -12 -13 -12 -12 -11 -11 -11 -11 -12 -12 -13 -14 -14 -14 -14 -13 -11 -10 -10 -11 -11 -10 -10 -10 -10 -10 -11 -11 -11 -10 -10 -10 -10 -9 -10 -10 -9 -9 -10 -11 -11 -11 -10 -11 -8 -11 -13 -12
-15 -15 -14 -13 -13 -12 -12 -12 -13 -13 -14 -13 -13 -12 -13 -14 -13 -13 -12 -11 -12 -11 -11 -11 -10 -10 -10 -10 -10 -11 -10 -10 -10 -10 -10 -10 -10 -10 -9 -10 -9 -9 -10 -11 -12 -10 -11 -11 -12
-15 -15 -15 -14 -14 -14 -15 -13 -12 -14 -13 -13 -14 -13 -13 -13 -13 -13 -12 -13 -13 -12 -12 -11 -11 -11 -11 -10 -10 -9 -9 -10 -10 -10 -10 -10 -9 -9 -10 -10 -10 -10 -10 -11 -12 -12 -12 -11 -9
-15 -15 -16 -15 -14 -13 -12 -12 -14 -14 -13 -13 -13 -13 -13 -13 -13 -13 -13 -13 -12 -13 -12 -11 -11 -10 -10 -11 -11 -10 -10 -10 -10 -10 -10 -10 -10 -10 -10 -10 -10 -10 -10 -10 -11 -10 -12 -12 -11
-15 -15 -16 -16 -14 -14 -13 -14 -15 -15 -14 -13 -14 -14 -13 -14 -14 -14 -13 -13 -13 -12 -12 -12 -12 -10 -10 -10 -11 -10 -10 -11 -11 -11 -11 -11 -11 -10 -10 -11 -11 -11 -11 -11 -10 -10 -10 -12 -12
-16 -16 -16 -16 -15 -15 -14 -14 -14 -15 -14 -14 -14 -14 -14 -14 -14 -13 -13 -13 -13 -13 -13 -12 -12 -11 -11 -10 -11 -11 -11 -11 -12 -12 -12 -12 -11 -11 -11 -11 -11 -12 -11 -11 -11 -11 -12 -12 -13
-15 -16 -16 -16 -15 -15 -15 -13 -15 -15 -15 -14 -14 -14 -14 -15 -15 -15 -14 -14 -14 -14 -13 -12 -13 -12 -12 -11 -11 -12 -12 -12 -12 -13 -13 -13 -13 -13 -13 -13 -13 -13 -13 -13 -13 -12 -12 -13 -13
Height
5878 5880 5882 5884 5893 5898 5903 5908 5904 5901 5902 5907 5912 5913 5912 5916 5912 5914 5920 5918 5920 5921 5921 5922 5923 5923 5924 5924 5925 5925 5926 5926 5926 5926 5926 5926 5925 5924 5923 5922 5921 5920 5919 5917 5916 5916 5915 5914 5913
5873 5875 5879 5879 5888 5894 5901 5898 5896 5895 5900 5903 5909 5909 5900 5908 5913 5916 5920 5918 5921 5922 5922 5922 5923 5923 5924 5925 5925 5926 5926 5926 5926 5926 5926 5926 5925 5924 5923 5922 5921 5920 5920 5919 5917 5915 5913 5912 5911
5868 5871 5875 5877 5883 5892 5894 5892 5896 5893 5895 5897 5901 5902 5900 5899 5906 5916 5919 5916 5918 5919 5921 5921 5922 5922 5923 5924 5924 5925 5925 5925 5925 5925 5925 5925 5924 5924 5923 5922 5921 5920 5920 5918 5917 5916 5914 5913 5911
5864 5867 5870 5875 5883 5887 5889 5891 5891 5892 5894 5893 5896 5895 5896 5894 5901 5908 5914 5915 5913 5916 5917 5918 5920 5920 5921 5921 5922 5922 5923 5923 5923 5923 5923 5922 5923 5923 5921 5921 5920 5919 5918 5917 5916 5915 5914 5912 5911
5858 5862 5866 5872 5880 5880 5884 5887 5886 5887 5887 5889 5890 5888 5891 5893 5896 5898 5908 5911 5910 5911 5913 5914 5916 5917 5918 5918 5919 5919 5919 5920 5920 5921 5920 5920 5919 5919 5919 5919 5918 5918 5917 5915 5914 5913 5912 5910 5909
5854 5857 5862 5869 5876 5876 5878 5880 5880 5885 5884 5883 5888 5882 5885 5889 5895 5898 5897 5904 5910 5904 5907 5909 5911 5912 5914 5915 5915 5916 5917 5916 5917 5917 5918 5918 5918 5917 5916 5916 5915 5915 5915 5914 5913 5911 5910 5910 5908
5851 5851 5858 5864 5870 5871 5874 5873 5872 5880 5880 5878 5882 5876 5875 5879 5891 5896 5896 5894 5904 5905 5903 5905 5906 5908 5909 5910 5911 5912 5913 5913 5914 5914 5914 5915 5916 5915 5914 5913 5913 5912 5912 5911 5910 5908 5907 5906 5906
5847 5845 5852 5858 5864 5868 5870 5868 5871 5874 5874 5874 5876 5873 5872 5875 5875 5893 5892 5890 5896 5898 5899 5900 5901 5902 5903 5904 5905 5906 5907 5908 5909 5909 5909 5910 5910 5910 5911 5911 5910 5909 5909 5908 5907 5906 5906 5904 5903
5839 5839 5846 5855 5859 5867 5869 5864 5862 5865 5867 5868 5870 5867 5871 5871 5874 5882 5884 5881 5888 5894 5892 5895 5896 5896 5897 5898 5900 5900 5901 5902 5903 5904 5905 5906 5906 5906 5906 5907 5907 5906 5905 5905 5904 5903 5903 5902 5901
5831 5836 5843 5850 5850 5854 5857 5855 5858 5857 5857 5864 5862 5871 5867 5864 5870 5873 5878 5876 5873 5884 5890 5885 5887 5888 5889 5891 5892 5893 5894 5895 5897 5898 5899 5900 5901 5902 5902 5902 5903 5902 5902 5901 5901 5900 5899 5899 5897
5826 5831 5836 5839 5841 5841 5845 5851 5851 5852 5854 5857 5861 5863 5871 5863 5859 5862 5870 5873 5871 5867 5875 5880 5874 5879 5883 5885 5883 5885 5887 5888 5890 5892 5893 5894 5895 5896 5897 5898 5897 5896 5897 5896 5896 5895 5895 5894 5894
5820 5824 5828 5832 5833 5835 5836 5842 5842 5845 5849 5851 5851 5856 5863 5863 5860 5858 5863 5867 5867 5860 5855 5863 5874 5876 5872 5876 5878 5879 5880 5881 5883 5884 5884 5886 5887 5889 5890 5889 5889 5889 5890 5891 5891 5890 5889 5888 5887
5813 5817 5820 5824 5825 5827 5828 5834 5840 5840 5844 5845 5845 5847 5851 5853 5855 5853 5853 5862 5858 5854 5851 5849 5853 5866 5866 5867 5870 5870 5872 5873 5873 5876 5877 5877 5877 5878 5882 5882 5882 5882 5882 5881 5883 5882 5883 5882 5882
5806 5809 5812 5815 5818 5818 5820 5827 5830 5832 5833 5836 5838 5838 5840 5842 5845 5845 5847 5848 5850 5846 5845 5843 5841 5848 5860 5852 5857 5861 5864 5865 5867 5869 5867 5869 5869 5870 5871 5874 5874 5873 5874 5874 5875 5874 5874 5874 5872
5800 5802 5805 5808 5811 5813 5813 5816 5821 5824 5824 5827 5826 5829 5833 5834 5835 5836 5838 5839 5838 5837 5838 5838 5838 5840 5850 5809 5842 5846 5854 5857 5859 5857 5855 5856 5858 5858 5860 5861 5862 5864 5864 5863 5863 5864 5864 5865 5863
5793 5796 5800 5803 5807 5808 5807 5812 5813 5814 5814 5816 5817 5821 5825 5826 5827 5829 5830 5830 5828 5829 5829 5830 5829 5831 5835 5840 5839 5839 5842 5848 5848 5850 5848 5849 5849 5849 5849 5851 5852 5854 5854 5854 5853 5852 5853 5854 5854
5787 5791 5795 5798 5799 5799 5800 5803 5806 5805 5806 5808 5810 5813 5815 5817 5819 5821 5822 5820 5821 5823 5824 5823 5827 5825 5825 5828 5829 5831 5835 5838 5839 5838 5837 5839 5840 5839 5839 5840 5840 5841 5842 5842 5842 5842 5843 5844 5844
5783 5786 5787 5789 5793 5792 5792 5794 5796 5799 5799 5799 5800 5801 5804 5807 5809 5810 5812 5809 5811 5814 5815 5816 5812 5816 5817 5818 5819 5822 5820 5823 5825 5826 5825 5827 5830 5830 5829 5829 5831 5831 5830 5830 5830 5832 5832 5832 5833
5775 5776 5778 5781 5785 5784 5785 5786 5786 5788 5791 5790 5794 5796 5797 5798 5799 5800 5802 5802 5802 5802 5803 5807 5807 5803 5802 5808 5812 5811 5812 5811 5810 5811 5813 5816 5818 5819 5819 5821 5820 5817 5816 5819 5820 5821 5823 5823 5823
5768 5770 5772 5773 5777 5777 5777 5776 5777 5780 5784 5786 5785 5785 5786 5788 5789 5790 5791 5790 5790 5791 5795 5799 5800 5799 5798 5793 5795 5798 5800 5803 5803 5804 5803 5806 5808 5807 5807 5810 5808 5805 5807 5811 5811 5810 5810 5810 5810
5761 5763 5764 5765 5769 5768 5768 5768 5771 5773 5777 5779 5780 5780 5781 5782 5782 5783 5782 5780 5780 5784 5787 5792 5794 5791 5790 5789 5787 5787 5788 5791 5792 5793 5794 5796 5796 5794 5792 5792 5796 5793 5793 5794 5799 5798 5797 5799 5799
5754 5758 5758 5759 5762 5762 5767 5759 5765 5768 5771 5772 5773 5773 5774 5774 5771 5769 5768 5770 5774 5774 5775 5777 5780 5780 5781 5781 5782 5781 5779 5778 5780 5781 5783 5785 5787 5785 5781 5779 5778 5775 5774 5773 5778 5781 5784 5785 5788
5744 5748 5749 5750 5751 5753 5757 5755 5759 5765 5764 5766 5764 5763 5763 5762 5761 5761 5761 5764 5765 5764 5762 5763 5765 5766 5769 5769 5767 5766 5765 5766 5767 5770 5771 5771 5773 5772 5771 5770 5762 5729 5765 5769 5767 5764 5765 5770 5774
5740 5741 5741 5742 5744 5742 5749 5752 5752 5757 5757 5755 5753 5752 5754 5751 5748 5749 5753 5757 5757 5755 5755 5753 5752 5754 5757 5757 5754 5752 5752 5753 5754 5757 5759 5760 5761 5759 5756 5756 5749 5741 5745 5752 5753 5744 5753 5752 5756
5732 5731 5732 5733 5734 5733 5743 5741 5742 5748 5746 5741 5743 5742 5745 5741 5740 5741 5743 5745 5746 5745 5742 5741 5742 5742 5741 5742 5744 5742 5740 5741 5742 5743 5744 5744 5745 5746 5744 5741 5737 5738 5739 5738 5738 5748 5745 5740 5736
5723 5723 5724 5723 5728 5727 5730 5726 5733 5738 5736 5738 5737 5732 5736 5733 5732 5733 5735 5737 5736 5735 5733 5733 5733 5731 5731 5730 5728 5728 5728 5727 5727 5727 5728 5730 5730 5732 5732 5728 5721 5717 5716 5716 5723 5728 5725 5718 5711
5714 5715 5717 5712 5714 5714 5720 5726 5730 5729 5722 5733 5727 5724 5725 5726 5724 5724 5726 5727 5724 5722 5723 5723 5721 5719 5719 5718 5715 5714 5714 5713 5710 5710 5711 5714 5716 5717 5716 5714 5711 5705 5704 5706 5708 5712 5715 5715 5706
5708 5712 5711 5706 5706 5707 5709 5715 5718 5719 5717 5721 5721 5714 5715 5716 5715 5714 5713 5713 5710 5711 5712 5711 5709 5705 5705 5705 5702 5700 5699 5696 5694 5693 5694 5695 5697 5700 5701 5697 5695 5690 5689 5689 5692 5697 5700 5699 5701
5703 5701 5704 5702 5700 5699 5701 5705 5707 5710 5710 5708 5711 5711 5705 5710 5705 5702 5700 5699 5698 5698 5699 5699 5694 5691 5689 5689 5687 5683 5681 5679 5676 5675 5673 5673 5676 5678 5680 5680 5679 5676 5672 5672 5674 5681 5688 5685 5688
5690 5692 5692 5692 5693 5691 5689 5692 5702 5698 5697 5700 5700 5700 5699 5698 5694 5691 5691 5688 5683 5683 5681 5682 5680 5678 5676 5672 5671 5669 5666 5663 5660 5657 5653 5654 5654 5657 5655 5656 5657 5657 5654 5651 5651 5658 5666 5668 5673
Wind_Speed
24 24 26 30 27 19 22 16 11 9 26 26 30 31 31 30 24 23 11 12 9 9 7 5 4 5 4 4 5 4 3 4 5 6 5 6 6 5 3 3 3 4 6 7 7 5 2 0 2
27 27 25 30 29 22 25 23 16 22 20 24 26 31 37 34 30 25 17 18 15 14 10 9 8 8 9 8 6 5 4 5 6 7 8 7 7 8 8 7 6 5 5 5 5 5 3 1 1
29 29 26 28 29 25 30 33 17 28 22 25 29 33 33 35 30 23 17 21 20 18 17 15 13 13 13 13 12 12 12 11 13 13 13 12 11 9 10 11 10 10 10 8 7 7 5 3 3
31 30 29 26 26 28 31 28 28 31 36 29 30 34 32 34 32 26 22 24 27 23 22 19 19 18 17 18 18 18 17 16 16 16 17 16 17 16 13 12 11 12 12 12 11 11 10 7 7
34 34 31 29 24 31 31 19 24 23 21 34 32 38 39 37 34 31 25 25 27 28 26 24 22 22 21 20 20 20 20 20 21 19 18 16 14 14 15 14 13 13 13 13 13 14 13 11 10
36 37 35 28 24 27 37 13 20 18 19 15 16 32 35 36 33 33 33 29 23 31 30 28 28 26 25 24 24 24 24 24 25 25 22 19 17 14 13 13 13 13 13 13 14 14 14 15 14
34 37 34 34 31 30 32 16 29 22 24 24 20 35 41 40 31 27 32 36 27 28 31 30 30 30 30 29 29 28 27 26 24 24 24 24 22 19 17 16 15 15 14 13 14 15 15 15 16
37 41 37 32 32 34 35 24 15 24 33 37 37 40 43 44 45 29 30 34 30 29 31 30 30 30 31 32 31 30 29 27 25 25 23 23 25 25 25 22 20 18 18 18 18 17 18 18 18
44 47 42 35 33 29 29 38 32 26 34 39 40 47 45 46 46 37 35 38 35 27 27 25 27 31 32 32 31 32 31 30 27 25 26 25 26 25 25 25 25 25 23 23 21 21 19 20 20
46 45 43 37 39 39 36 40 43 35 42 40 41 37 41 46 44 43 37 40 42 33 32 30 29 30 29 28 27 27 26 29 30 29 28 28 28 28 28 27 26 25 24 24 25 25 24 25 24
42 42 41 44 43 45 44 44 48 51 50 48 42 42 35 43 47 46 41 40 42 47 40 35 24 35 35 37 36 31 30 30 34 33 33 32 34 32 32 30 30 28 28 28 27 28 27 27 27
38 36 38 35 39 43 49 48 52 52 50 48 49 47 41 42 45 48 44 38 38 44 51 49 38 35 43 41 38 39 36 33 35 35 35 36 39 31 33 38 35 32 32 32 32 32 32 33 32
38 34 34 36 40 43 47 46 42 45 44 45 48 47 45 44 41 43 43 34 39 44 49 52 52 38 39 45 39 47 38 40 37 35 40 43 44 29 40 42 39 39 43 37 36 39 37 36 38
33 35 35 35 36 42 45 43 40 43 43 41 44 43 39 38 37 39 40 37 37 44 46 50 52 46 36 44 37 32 37 48 40 41 44 43 46 47 45 40 43 41 43 42 41 42 44 43 43
30 33 34 34 34 33 37 38 38 38 39 38 42 43 37 35 35 37 36 35 38 41 43 46 48 47 34 25 34 39 18 38 44 49 45 43 43 45 45 42 45 48 46 49 53 52 45 47 47
33 32 30 30 28 31 35 32 32 35 36 38 40 39 33 33 35 36 36 38 42 42 43 44 45 45 41 41 38 38 37 39 43 47 43 43 47 51 51 52 49 51 52 50 49 48 49 50 52
35 31 29 26 28 30 34 34 33 33 36 37 38 37 34 34 34 34 35 39 40 40 41 43 42 45 46 44 45 42 43 40 42 41 39 40 46 51 53 51 52 54 52 50 52 53 53 53 51
31 28 27 24 14 20 31 35 36 31 37 38 39 38 37 37 37 38 38 41 43 43 43 43 45 46 47 48 48 45 44 43 43 41 42 44 45 48 49 51 51 53 51 50 50 49 49 48 50
29 33 34 31 19 23 26 33 40 43 39 43 41 41 42 43 41 43 46 48 49 51 50 48 44 47 50 46 46 46 45 46 46 46 47 48 49 49 49 50 52 53 54 52 51 52 51 50 53
32 32 31 34 30 33 37 40 41 28 22 27 30 30 29 28 30 31 34 37 38 40 40 37 38 42 46 50 49 49 49 47 48 49 51 52 52 52 52 51 50 53 52 51 53 55 55 55 55
34 34 35 38 35 40 39 41 38 36 32 30 30 31 34 34 35 36 39 43 44 40 38 32 30 36 38 43 44 44 44 42 43 45 46 45 47 47 51 53 53 56 55 56 54 56 54 54 55
33 31 33 35 33 38 40 45 40 36 31 30 32 34 31 31 37 41 44 45 43 41 39 36 37 42 43 43 44 45 46 47 46 46 44 44 45 48 52 53 56 57 62 60 58 58 55 56 57
35 33 35 37 38 38 39 43 40 32 33 29 28 30 31 34 40 41 43 42 42 45 45 45 43 42 40 41 45 46 49 50 50 49 49 49 48 49 53 52 56 71 43 51 56 56 56 59 55
35 36 38 39 40 45 39 36 36 28 25 21 20 23 29 38 44 45 41 33 34 40 43 46 47 45 43 41 46 49 51 51 51 50 49 49 49 51 54 52 60 54 52 39 31 55 64 59 57
33 36 36 39 41 46 36 39 34 17 16 31 29 33 33 43 48 48 46 40 37 41 43 46 48 48 47 46 45 49 52 52 52 52 52 53 51 51 53 56 58 55 49 65 56 53 61 63 65
45 46 48 48 44 43 39 43 35 26 32 31 31 39 36 46 50 53 50 47 48 47 50 47 47 49 49 50 50 50 52 53 53 53 54 54 55 54 55 57 61 61 60 62 62 58 57 45 53
26 25 26 36 36 39 37 32 27 33 40 32 29 36 37 42 52 54 50 49 55 50 46 44 47 48 47 48 52 54 53 54 55 55 56 55 55 55 56 58 61 64 65 64 63 58 59 50 33
31 28 30 36 39 38 37 31 30 33 43 45 47 41 46 45 49 51 55 56 56 53 49 48 49 50 48 47 48 52 52 53 55 56 56 56 57 57 58 60 62 65 68 69 68 65 61 51 59
32 35 40 43 46 44 41 38 35 30 31 38 42 47 50 48 55 59 58 61 59 56 53 45 49 52 52 50 48 53 54 55 56 56 58 59 58 59 60 62 64 68 71 74 73 66 61 66 63
31 30 35 38 38 40 41 39 28 36 42 44 46 48 46 49 55 58 60 65 65 59 55 50 49 50 50 53 52 51 54 55 55 55 55 54 55 56 57 58 58 62 69 75 75 74 70 69 66
Wind_Direction
212 215 216 216 215 196 172 155 214 253 261 217 228 241 248 241 247 231 213 247 240 251 265 268 294 291 259 254 239 228 239 262 282 285 292 300 299 275 267 271 229 220 213 204 207 219 240 275 335
209 217 221 220 213 196 169 182 249 233 240 241 228 238 259 248 244 236 236 248 244 247 253 262 275 289 289 279 278 268 276 297 305 308 309 307 303 303 300 286 274 256 244 244 249 248 240 246 297
213 216 222 223 212 196 192 188 226 243 233 243 251 232 253 259 250 253 238 238 257 259 252 256 258 262 276 280 278 279 288 294 300 306 311 316 318 311 308 304 301 297 293 285 270 270 273 281 284
211 216 216 221 214 199 203 205 211 237 238 245 244 251 247 265 268 253 240 244 258 264 266 261 259 257 261 268 273 279 282 284 290 300 302 303 305 307 307 300 298 300 300 297 294 291 293 298 301
212 219 219 217 212 205 205 210 240 257 229 228 236 246 250 252 258 264 256 247 257 265 267 266 263 263 267 270 271 274 278 283 289 290 295 299 303 302 299 298 295 296 298 298 296 294 295 297 297
220 223 220 216 207 217 203 181 260 247 229 238 224 246 248 247 255 259 263 257 255 263 266 267 268 267 267 269 270 273 279 282 285 288 289 290 298 301 304 300 291 289 290 290 292 296 299 301 301
227 229 224 220 213 213 217 191 279 239 252 243 234 252 263 265 259 256 262 269 255 254 261 264 266 270 272 273 275 276 277 279 280 284 287 290 290 291 295 295 291 292 289 284 285 288 291 292 293
229 235 224 221 216 214 223 197 240 258 257 259 261 260 264 269 273 264 264 266 259 256 258 259 262 263 265 269 273 276 278 278 277 279 283 285 288 292 292 297 294 290 288 289 286 284 286 288 289
230 235 236 233 229 221 227 232 231 253 251 251 250 257 261 270 277 281 280 272 259 254 259 260 264 264 264 263 263 267 271 274 277 275 278 280 280 281 287 295 298 296 296 296 291 287 284 283 283
236 237 238 240 239 239 233 240 237 234 247 245 255 258 269 273 272 277 277 282 279 266 254 263 257 258 258 260 262 262 266 267 268 274 273 271 274 277 281 286 284 282 282 284 288 285 286 285 282
236 238 240 239 238 238 237 237 243 249 255 258 262 264 261 267 275 277 277 275 280 284 263 262 246 274 270 265 260 258 257 264 264 267 271 270 269 271 273 274 272 269 271 271 268 270 275 281 282
234 235 238 241 242 243 244 238 241 245 255 265 267 264 264 265 269 274 274 279 280 278 280 275 265 259 265 277 267 269 257 258 264 259 263 263 261 261 267 261 254 255 258 262 270 263 264 269 272
242 243 243 243 246 247 250 251 253 257 257 258 263 268 266 267 268 269 271 264 264 264 268 276 274 263 271 270 273 266 257 250 248 259 265 262 264 252 261 260 264 266 260 249 258 268 261 266 268
242 242 244 245 244 251 254 255 254 255 258 259 262 265 265 261 260 264 264 261 251 257 262 268 275 274 272 256 254 250 270 252 252 259 256 263 262 260 262 260 258 265 266 262 259 268 267 263 268
241 242 242 244 248 254 258 258 256 256 257 257 257 256 255 259 259 257 258 255 254 255 255 260 264 269 271 264 262 261 249 250 260 248 251 258 258 255 262 257 256 260 263 261 262 265 266 264 263
235 239 238 242 245 249 252 251 252 253 253 252 256 256 254 252 254 253 255 252 253 251 256 260 264 271 271 266 268 260 264 255 252 253 255 257 261 257 263 266 264 264 266 265 266 266 270 271 267
238 241 246 247 253 247 248 250 251 256 257 257 257 258 257 256 255 257 254 258 259 259 260 260 259 262 264 265 263 261 258 256 250 253 256 256 256 258 264 265 266 266 266 267 268 267 269 269 268
240 237 236 234 241 267 257 254 250 247 254 258 259 263 264 261 260 258 259 261 260 259 259 260 265 260 260 262 264 267 271 270 269 265 263 263 259 259 260 263 265 266 268 269 268 268 267 266 263
230 233 228 224 210 229 254 266 267 260 257 259 260 260 262 265 264 263 260 257 256 259 257 255 260 269 270 269 268 269 269 271 272 272 270 269 271 271 268 269 270 269 264 264 266 267 269 269 271
234 235 240 241 214 224 234 243 254 261 247 261 269 273 269 264 264 263 264 264 260 256 258 263 265 263 266 269 267 266 265 265 265 268 270 272 274 273 270 267 261 261 261 264 264 265 266 266 266
247 247 243 242 233 235 238 246 250 261 270 260 260 262 265 270 269 267 264 262 263 266 266 266 259 261 260 261 266 268 267 264 263 263 264 267 268 270 271 268 266 263 262 261 260 264 263 264 263
247 253 256 256 248 244 248 258 253 258 266 269 269 271 273 272 269 266 266 270 277 279 281 278 262 256 258 264 264 265 267 269 269 269 267 265 267 269 268 270 268 262 261 255 257 257 262 266 264
246 242 247 254 257 256 252 258 269 275 277 285 283 281 282 277 266 262 266 274 280 281 277 276 277 273 272 273 272 269 268 268 268 268 268 269 269 267 267 270 277 253 272 265 265 251 252 261 264
259 257 254 254 258 260 263 270 270 280 278 264 259 252 265 269 272 275 277 278 277 273 273 274 273 274 274 270 269 271 271 271 271 272 271 270 270 271 274 274 271 278 263 286 277 265 259 254 258
248 252 253 254 252 259 262 261 267 245 231 254 273 263 251 256 263 270 278 286 282 280 275 276 275 276 275 270 265 265 268 270 272 272 272 272 270 269 270 273 274 271 266 269 269 261 261 257 254
243 249 258 266 261 257 257 255 257 252 249 249 250 261 250 253 257 262 274 280 284 283 279 275 274 272 273 274 270 267 268 269 270 269 267 267 269 270 270 271 273 275 275 274 272 273 278 273 252
247 238 252 257 260 261 261 265 274 249 254 230 238 246 248 249 255 262 270 275 282 278 274 273 272 270 269 269 272 272 272 272 272 271 270 269 266 265 265 266 267 270 270 271 267 266 270 274 259
258 250 246 253 262 267 273 270 264 254 254 246 256 265 261 262 261 269 276 277 276 278 278 277 279 275 274 276 276 274 274 275 275 275 274 271 269 268 265 263 262 262 263 265 266 265 264 268 267
257 256 249 253 262 268 270 267 265 259 256 252 250 253 260 266 268 270 270 273 280 280 281 278 277 276 278 279 278 277 278 278 276 276 275 273 270 268 266 263 260 260 260 260 261 259 259 264 261
253 249 252 256 266 266 268 263 262 264 255 255 257 260 255 260 269 272 273 273 277 281 284 284 281 280 281 280 279 278 279 279 279 277 273 270 269 268 268 267 265 262 258 258 258 257 254 253 257